Location: Enikep?du
(16.5133°N, 80.7066°E)
Time: 06:17:57
(UTC+00:00)

Delta 2 Rocket - Pass Details

Date: 20 January 2020
Orbit: 890 x 1677 km, 26.4° (Epoch: 17 February)

Event Time Altitude Azimuth Distance (km) Brightness Sun altitude
Exits shadow 00:09:09 12° 251° (WSW) 2,653 5.8 -14.5°
Maximum altitude 00:15:24 83° 339° (NNW) 937 3.9 -13.0°
Drops below altitude 10° 00:21:24 10° 66° (ENE) 2,547 6.9 -11.7°
Sets 00:23:55 0° 67° (ENE) 3,482 7.7 -11.1°
